Weather History for KBWG - November, 2012

Change the Weather History Date:

Thursday, November 22, 2012

  Actual Average Record
Temperature  
Mean Temperature 51 °F 46 °F  
Max Temperature 68 °F 57 °F 78 °F (1934)
Min Temperature 34 °F 36 °F 8 °F (1880)
Degree Days  
Heating Degree Days 14 19  
Month to date heating degree days 364 334  
Since 1 July heating degree days 638 597  
Cooling Degree Days 0 0  
Month to date cooling degree days 0 0  
Year to date cooling degree days 1935 1488  
Growing Degree Days 2 (Base 50)    
Moisture  
Dew Point 37 °F    
Average Humidity 66    
Maximum Humidity 93    
Minimum Humidity 39    
Precipitation  
Precipitation 0.00 in 0.14 in 1.89 in (1940)
Month to date precipitation 0.92 2.98  
Year to date precipitation 35.34 43.85  
Snow  
Snow 0.00 in 0.00 in 3.80 in (1929)
Month to date snowfall 0.0 0.0  
Since 1 July snowfall 0.0 T  
Since 1 September snowfall 0.0 T  
Snow Depth 0.00 in    
Sea Level Pressure  
Sea Level Pressure 30.19 in    
Wind  
Wind Speed 4 mph (SSW)    
Max Wind Speed 16 mph    
Max Gust Speed 22 mph    
Visibility 5 miles    
Events Fog    
T = Trace of Precipitation, MM = Missing Value Source: NWS Daily Summary

Daily Weather History Graph

Daily Weather History Graph

Search for Another Location

Airport or City:

Trip Planner

Search our weather history database for the weather conditions in past years. The results will help you decide how hot, cold, wet, or windy it might be!

Date:

Astronomy

Nov. 22, 2012 Rise Set
Actual Time 6:31 AM CST 4:31 PM CST
Civil Twilight 6:03 AM CST 4:59 PM CST
Nautical Twilight 5:32 AM CST 5:31 PM CST
Astronomical Twilight 5:01 AM CST 6:02 PM CST
Moon 1:10 PM CST (11/22) 12:58 AM CST (11/22)
Length of Visible Light 10h 56m
Length of Day
9h 59m
Waxing Gibbous, 71% of the Moon is Illuminated
Nov 22
Waxing Gibbous
Nov 28
Full
Dec 6
Last Quarter
Dec 13
New
Dec 19
First Quarter

Hourly Weather History & Observations

Time (CST) Temp. Dew Point Humidity Pressure Visibility Wind Dir Wind Speed Gust Speed Precip Events Conditions
12:09 AM 39.2 °F 37.4 °F 93% 30.21 in 1.8 mi Calm Calm - N/A   Clear
12:19 AM 39.2 °F 37.4 °F 93% 30.21 in 1.0 mi Calm Calm - N/A   Clear
12:26 AM 41.0 °F 37.4 °F 87% 30.21 in 2.0 mi Calm Calm - N/A   Clear
12:36 AM 39.2 °F 37.4 °F 93% 30.21 in 3.0 mi Calm Calm - N/A   Clear
12:53 AM 41.0 °F 39.0 °F 93% 30.21 in 3.0 mi Calm Calm - N/A   Clear
1:53 AM 37.9 °F 35.1 °F 89% 30.22 in 4.0 mi Calm Calm - N/A   Clear
2:53 AM 37.0 °F 33.1 °F 86% 30.22 in 4.0 mi Calm Calm - N/A   Clear
3:53 AM 37.0 °F 35.1 °F 93% 30.22 in 3.0 mi Calm Calm - N/A   Clear
4:02 AM 37.4 °F 33.8 °F 87% 30.21 in 2.5 mi Calm Calm - N/A   Clear
4:15 AM 37.4 °F 33.8 °F 87% 30.21 in 4.0 mi Calm Calm - N/A   Clear
4:53 AM 37.0 °F 33.1 °F 86% 30.22 in 3.0 mi Calm Calm - N/A   Clear
5:22 AM 35.6 °F 33.8 °F 93% 30.22 in 1.8 mi Calm Calm - N/A   Clear
5:31 AM 35.6 °F 33.8 °F 93% 30.22 in 1.0 mi Calm Calm - N/A   Clear
5:39 AM 35.6 °F 32.0 °F 87% 30.22 in 0.5 mi Calm Calm - N/A Fog Fog
5:53 AM 36.0 °F 32.0 °F 86% 30.23 in 0.5 mi Calm Calm - N/A Fog Fog
5:58 AM 35.6 °F 33.8 °F 93% 30.22 in 1.0 mi Calm Calm - N/A   Clear
6:01 AM 35.6 °F 33.8 °F 93% 30.22 in 2.0 mi Calm Calm - N/A   Clear
6:10 AM 35.6 °F 33.8 °F 93% 30.22 in 1.2 mi Calm Calm - N/A   Clear
6:13 AM 35.6 °F 33.8 °F 93% 30.22 in 0.5 mi Calm Calm - N/A Fog Fog
6:38 AM 35.6 °F 32.0 °F 87% 30.23 in 0.2 mi Calm Calm - N/A Fog Fog
6:53 AM 35.1 °F 32.0 °F 89% 30.24 in 0.2 mi Calm Calm - N/A Fog Fog
7:14 AM 35.6 °F 33.8 °F 93% 30.23 in 1.2 mi Calm Calm - N/A   Clear
7:17 AM 35.6 °F 33.8 °F 93% 30.23 in 3.0 mi Calm Calm - N/A   Clear
7:53 AM 39.0 °F 37.0 °F 93% 30.25 in 2.5 mi Calm Calm - N/A   Clear
8:07 AM 41.0 °F 37.4 °F 87% 30.24 in 4.0 mi Calm Calm - N/A   Clear
8:53 AM 46.9 °F 41.0 °F 80% 30.24 in 5.0 mi Calm Calm - N/A   Haze
9:53 AM 55.9 °F 45.0 °F 67% 30.23 in 5.0 mi Variable 3.5 mph - N/A   Haze
10:53 AM 62.1 °F 46.0 °F 56% 30.20 in 7.0 mi SSW 8.1 mph - N/A   Clear
11:53 AM 66.0 °F 46.0 °F 48% 30.17 in 10.0 mi SSW 9.2 mph - N/A   Clear
12:53 PM 66.9 °F 44.1 °F 44% 30.15 in 10.0 mi SW 10.4 mph - N/A   Clear
1:53 PM 68.0 °F 43.0 °F 40% 30.14 in 10.0 mi SSW 12.7 mph - N/A   Clear
2:53 PM 66.9 °F 42.1 °F 40% 30.13 in 10.0 mi SW 8.1 mph - N/A   Clear
3:53 PM 64.0 °F 39.0 °F 40% 30.13 in 10.0 mi WSW 4.6 mph - N/A   Clear
4:53 PM 57.0 °F 39.0 °F 51% 30.12 in 10.0 mi Calm Calm - N/A   Clear
5:53 PM 55.9 °F 39.9 °F 55% 30.11 in 10.0 mi South 3.5 mph - N/A   Clear
6:53 PM 54.0 °F 39.9 °F 59% 30.12 in 10.0 mi South 3.5 mph - N/A   Clear
7:53 PM 55.9 °F 41.0 °F 57% 30.11 in 10.0 mi SSW 5.8 mph - N/A   Clear
8:53 PM 55.0 °F 39.9 °F 57% 30.11 in 10.0 mi SSW 4.6 mph - N/A   Clear
9:53 PM 55.0 °F 39.0 °F 55% 30.11 in 10.0 mi SSW 4.6 mph - N/A   Clear
10:53 PM 54.0 °F 37.9 °F 55% 30.11 in 10.0 mi SW 3.5 mph - N/A   Clear
11:53 PM 52.0 °F 37.9 °F 59% 30.13 in 10.0 mi SW 3.5 mph - N/A   Clear